Starlink 32439

operational
NORAD ID: 61665 Int'l Des: 2024-193 Owner: SPXS Country: US Constellation: starlink
LEOCIRCULAR

关于 Starlink 32439

正在加载描述...

实时位置

正在加载3D地球...

即将过境

高度历史

Altitude vs Time

uPlot chart will show altitude changes over time

两行轨道根数

1 61665U 24193E 26034.01820304 .00000425 00000-0 26477-4 0 9997
2 61665 53.1595 252.3800 0001199 83.8735 276.2403 15.30196893 71218
Epoch: Feb 3, 2026 • Age: 17 hours

当前状态

高度 487.1 km
速度 7.62 km/s
星下点 -35.22°S, 70.58°E
发射日期 Oct 26, 2024
运行时间 1.2 years
类型 internet

技术详情

分类 Payload
质量 730.00 kg
干质量 700.00 kg
总质量 730.00 kg
长度 0.30 m
直径 4.10 m
跨度 29.00 m
形状 Box + pan
制造商 SPXS
平台类型 Starlink V2M
阶段状态 In Orbit
所有者/国家 SPXS/US

大型星座

Loading constellations...